Time,TemperatureF,DewpointF,PressureIn,WindDirection,WindDirectionDegrees,WindSpeedMPH,WindSpeedGustMPH,Humidity,HourlyPrecipIn,Conditions,Clouds,dailyrainin,SoftwareType,DateUTC
2014-08-21 00:01:00,75.9,67.4,30.03,South,180,3.1,3.1,75,0.00,,,0.00,VWS V15.00,2014-08-21 05:01:00,
2014-08-21 00:06:00,75.7,67.3,30.03,South,180,4.0,4.0,75,0.00,,,0.00,VWS V15.00,2014-08-21 05:06:00,
2014-08-21 00:11:00,75.7,67.3,30.03,SE,135,3.1,3.1,75,0.00,,,0.00,VWS V15.00,2014-08-21 05:11:00,
2014-08-21 00:16:00,75.7,67.3,30.03,SSE,158,2.2,3.6,75,0.00,,,0.00,VWS V15.00,2014-08-21 05:16:00,
2014-08-21 00:21:00,76.3,67.4,30.03,SE,135,3.6,6.3,74,0.00,,,0.00,VWS V15.00,2014-08-21 05:21:00,
2014-08-21 00:26:00,76.5,67.2,30.03,SSE,158,4.9,6.3,73,0.00,,,0.00,VWS V15.00,2014-08-21 05:26:00,
2014-08-21 00:31:00,76.8,67.1,30.03,SSE,158,5.4,5.4,72,0.00,,,0.00,VWS V15.00,2014-08-21 05:31:00,
2014-08-21 00:36:00,76.8,67.1,30.03,South,180,8.1,8.1,72,0.00,,,0.00,VWS V15.00,2014-08-21 05:36:00,
2014-08-21 00:41:00,76.8,67.1,30.00,SE,135,5.4,8.7,72,0.00,,,0.00,VWS V15.00,2014-08-21 05:41:00,
2014-08-21 00:46:00,76.8,67.1,30.00,South,180,3.6,5.8,72,0.00,,,0.00,VWS V15.00,2014-08-21 05:46:00,
2014-08-21 00:51:00,77.0,66.9,30.00,SSE,158,5.8,6.3,71,0.00,,,0.00,VWS V15.00,2014-08-21 05:51:00,
2014-08-21 00:56:00,77.0,66.9,30.03,South,180,8.3,8.3,71,0.00,,,0.00,VWS V15.00,2014-08-21 05:56:00,
2014-08-21 01:01:00,76.8,67.1,30.03,SSE,158,4.0,5.4,72,0.00,,,0.00,VWS V15.00,2014-08-21 06:01:00,
2014-08-21 01:06:00,76.8,67.1,30.03,SSW,202,6.3,6.3,72,0.00,,,0.00,VWS V15.00,2014-08-21 06:06:00,
2014-08-21 01:11:00,76.6,66.9,30.03,SSE,158,6.3,6.3,72,0.00,,,0.00,VWS V15.00,2014-08-21 06:11:00,
2014-08-21 01:16:00,76.6,66.9,30.03,SE,135,6.3,6.3,72,0.00,,,0.00,VWS V15.00,2014-08-21 06:16:00,
2014-08-21 01:21:00,76.5,67.2,30.03,South,180,5.4,7.2,73,0.00,,,0.00,VWS V15.00,2014-08-21 06:21:00,
2014-08-21 01:26:00,76.5,67.2,30.03,East,90,6.3,6.3,73,0.00,,,0.00,VWS V15.00,2014-08-21 06:26:00,
2014-08-21 01:31:00,76.5,67.2,30.03,SW,225,5.8,5.8,73,0.00,,,0.00,VWS V15.00,2014-08-21 06:31:00,
2014-08-21 01:36:00,76.5,67.2,30.03,WSW,248,0.0,4.0,73,0.00,,,0.00,VWS V15.00,2014-08-21 06:36:00,
2014-08-21 01:41:00,76.1,67.2,30.03,South,180,0.0,0.0,74,0.00,,,0.00,VWS V15.00,2014-08-21 06:41:00,
2014-08-21 01:46:00,75.9,67.4,30.03,South,180,0.0,0.0,75,0.00,,,0.00,VWS V15.00,2014-08-21 06:46:00,
2014-08-21 01:51:00,75.7,67.3,30.03,SE,135,3.6,3.6,75,0.00,,,0.00,VWS V15.00,2014-08-21 06:51:00,
2014-08-21 01:56:00,75.7,67.6,30.00,West,270,2.7,7.2,76,0.00,,,0.00,VWS V15.00,2014-08-21 06:56:00,
2014-08-21 02:01:00,75.7,67.6,30.00,SW,225,5.4,5.4,76,0.00,,,0.00,VWS V15.00,2014-08-21 07:01:00,
2014-08-21 02:06:00,75.9,67.8,30.00,West,270,5.4,8.1,76,0.00,,,0.00,VWS V15.00,2014-08-21 07:06:00,
2014-08-21 02:11:00,75.7,67.6,30.00,East,90,0.0,0.0,76,0.00,,,0.00,VWS V15.00,2014-08-21 07:11:00,
2014-08-21 02:16:00,75.7,67.6,30.00,South,180,3.1,3.1,76,0.00,,,0.00,VWS V15.00,2014-08-21 07:16:00,
2014-08-21 02:21:00,75.7,67.6,30.00,SE,135,2.7,4.0,76,0.00,,,0.00,VWS V15.00,2014-08-21 07:21:00,
2014-08-21 02:26:00,75.6,67.5,30.00,SE,135,2.2,3.6,76,0.00,,,0.00,VWS V15.00,2014-08-21 07:26:00,
2014-08-21 02:31:00,75.6,67.8,30.00,SW,225,2.7,2.7,77,0.00,,,0.00,VWS V15.00,2014-08-21 07:31:00,
2014-08-21 02:36:00,75.6,67.8,30.00,North,0,0.0,3.6,77,0.00,,,0.00,VWS V15.00,2014-08-21 07:36:00,
2014-08-21 02:41:00,75.4,67.7,30.00,SW,225,3.1,4.9,77,0.00,,,0.00,VWS V15.00,2014-08-21 07:41:00,
2014-08-21 02:46:00,75.4,68.1,30.03,West,270,2.7,4.0,78,0.00,,,0.00,VWS V15.00,2014-08-21 07:46:00,
2014-08-21 02:51:00,75.2,67.9,30.03,SE,135,2.7,3.6,78,0.00,,,0.00,VWS V15.00,2014-08-21 07:51:00,
2014-08-21 02:56:00,75.0,68.1,30.00,South,180,4.0,4.0,79,0.00,,,0.00,VWS V15.00,2014-08-21 07:56:00,
2014-08-21 03:01:00,75.2,68.2,30.00,West,270,2.7,4.5,79,0.00,,,0.00,VWS V15.00,2014-08-21 08:01:00,
2014-08-21 03:06:00,75.0,68.1,30.00,SSW,202,5.4,5.4,79,0.00,,,0.00,VWS V15.00,2014-08-21 08:06:00,
2014-08-21 03:11:00,75.2,68.2,30.03,SE,135,3.6,4.9,79,0.00,,,0.00,VWS V15.00,2014-08-21 08:11:00,
2014-08-21 03:16:00,75.0,68.1,30.03,South,180,2.7,2.7,79,0.00,,,0.00,VWS V15.00,2014-08-21 08:16:00,
2014-08-21 03:21:00,75.0,68.1,30.03,SSE,158,4.9,5.4,79,0.00,,,0.00,VWS V15.00,2014-08-21 08:21:00,
2014-08-21 03:25:00,74.8,68.3,30.00,South,180,4.0,5.4,80,0.00,,,0.00,VWS V15.00,2014-08-21 08:25:00,
2014-08-21 03:30:00,74.8,68.3,30.00,South,180,3.6,4.0,80,0.00,,,0.00,VWS V15.00,2014-08-21 08:30:00,
2014-08-21 03:35:00,74.8,68.3,30.00,SSE,158,0.0,2.7,80,0.00,,,0.00,VWS V15.00,2014-08-21 08:35:00,
2014-08-21 03:40:00,74.7,68.1,30.03,SE,135,0.0,0.0,80,0.00,,,0.00,VWS V15.00,2014-08-21 08:40:00,
2014-08-21 03:45:00,74.7,68.4,30.03,SW,225,4.0,5.4,81,0.00,,,0.00,VWS V15.00,2014-08-21 08:45:00,
2014-08-21 03:50:00,74.7,68.4,30.03,SW,225,2.7,5.4,81,0.00,,,0.00,VWS V15.00,2014-08-21 08:50:00,
2014-08-21 03:55:00,75.0,68.4,30.03,South,180,3.6,5.8,80,0.00,,,0.00,VWS V15.00,2014-08-21 08:55:00,
2014-08-21 04:00:00,75.0,68.4,30.03,South,180,5.4,5.8,80,0.00,,,0.00,VWS V15.00,2014-08-21 09:00:00,
2014-08-21 04:05:00,75.0,68.1,30.03,South,180,4.0,4.0,79,0.00,,,0.00,VWS V15.00,2014-08-21 09:05:00,
2014-08-21 04:11:00,74.8,68.3,30.03,SW,225,3.1,5.8,80,0.00,,,0.00,VWS V15.00,2014-08-21 09:11:00,
2014-08-21 04:16:00,74.8,68.3,30.03,SW,225,5.4,6.3,80,0.00,,,0.00,VWS V15.00,2014-08-21 09:16:00,
2014-08-21 04:21:00,74.8,68.3,30.03,WSW,248,3.1,4.0,80,0.00,,,0.00,VWS V15.00,2014-08-21 09:21:00,
2014-08-21 04:26:00,74.8,68.3,30.03,South,180,3.6,7.6,80,0.00,,,0.00,VWS V15.00,2014-08-21 09:26:00,
2014-08-21 04:31:00,74.8,68.6,30.03,SE,135,3.6,4.9,81,0.00,,,0.00,VWS V15.00,2014-08-21 09:31:00,
2014-08-21 04:36:00,74.7,68.4,30.03,SE,135,3.6,3.6,81,0.00,,,0.00,VWS V15.00,2014-08-21 09:36:00,
2014-08-21 04:41:00,74.7,68.4,30.03,SE,135,3.1,3.1,81,0.00,,,0.00,VWS V15.00,2014-08-21 09:41:00,
2014-08-21 04:46:00,74.5,68.6,30.03,South,180,4.5,4.9,82,0.00,,,0.00,VWS V15.00,2014-08-21 09:46:00,
2014-08-21 04:51:00,74.5,68.6,30.03,South,180,3.1,3.1,82,0.00,,,0.00,VWS V15.00,2014-08-21 09:51:00,
2014-08-21 04:56:00,74.5,68.6,30.03,South,180,3.1,3.1,82,0.00,,,0.00,VWS V15.00,2014-08-21 09:56:00,
2014-08-21 05:01:00,74.5,68.6,30.03,SE,135,4.0,4.0,82,0.00,,,0.00,VWS V15.00,2014-08-21 10:01:00,
2014-08-21 05:06:00,74.5,68.6,30.03,WSW,248,4.0,4.0,82,0.00,,,0.00,VWS V15.00,2014-08-21 10:06:00,
2014-08-21 05:11:00,74.5,69.0,30.03,SW,225,0.0,4.0,83,0.00,,,0.00,VWS V15.00,2014-08-21 10:11:00,
2014-08-21 05:16:00,74.3,68.4,30.03,SE,135,3.6,3.6,82,0.00,,,0.00,VWS V15.00,2014-08-21 10:16:00,
2014-08-21 05:21:00,74.1,68.6,30.03,SW,225,0.0,4.0,83,0.00,,,0.00,VWS V15.00,2014-08-21 10:21:00,
2014-08-21 05:26:00,74.1,68.6,30.03,West,270,0.0,3.6,83,0.00,,,0.00,VWS V15.00,2014-08-21 10:26:00,
2014-08-21 05:31:00,74.1,68.6,30.03,SW,225,0.0,0.0,83,0.00,,,0.00,VWS V15.00,2014-08-21 10:31:00,
2014-08-21 05:36:00,73.9,68.8,30.03,SE,135,2.2,3.6,84,0.00,,,0.00,VWS V15.00,2014-08-21 10:36:00,
2014-08-21 05:40:00,73.9,68.8,30.03,South,180,2.2,2.2,84,0.00,,,0.00,VWS V15.00,2014-08-21 10:40:00,
2014-08-21 05:45:00,73.8,68.6,30.03,SE,135,2.2,3.6,84,0.00,,,0.00,VWS V15.00,2014-08-21 10:45:00,
2014-08-21 05:50:00,73.9,68.8,30.03,SSW,202,0.0,3.6,84,0.00,,,0.00,VWS V15.00,2014-08-21 10:50:00,
2014-08-21 05:55:00,73.8,68.6,30.03,South,180,3.1,3.1,84,0.00,,,0.00,VWS V15.00,2014-08-21 10:55:00,
2014-08-21 06:00:00,73.8,68.6,30.03,SSE,158,4.0,4.9,84,0.00,,,0.00,VWS V15.00,2014-08-21 11:00:00,
2014-08-21 06:05:00,73.9,68.8,30.03,South,180,2.7,4.0,84,0.00,,,0.00,VWS V15.00,2014-08-21 11:05:00,
2014-08-21 06:10:00,73.9,68.8,30.03,West,270,2.2,4.0,84,0.00,,,0.00,VWS V15.00,2014-08-21 11:10:00,
2014-08-21 06:15:00,73.9,68.8,30.03,SE,135,0.0,3.6,84,0.00,,,0.00,VWS V15.00,2014-08-21 11:15:00,
2014-08-21 06:20:00,73.9,68.8,30.03,WSW,248,3.6,3.6,84,0.00,,,0.00,VWS V15.00,2014-08-21 11:20:00,
2014-08-21 06:25:00,74.3,68.8,30.03,SE,135,0.0,3.6,83,0.00,,,0.00,VWS V15.00,2014-08-21 11:25:00,
2014-08-21 06:30:00,74.3,68.8,30.03,West,270,4.0,6.3,83,0.00,,,0.00,VWS V15.00,2014-08-21 11:30:00,
2014-08-21 06:35:00,74.3,68.8,30.03,SW,225,0.0,3.6,83,0.00,,,0.00,VWS V15.00,2014-08-21 11:35:00,
2014-08-21 06:40:00,74.3,68.4,30.06,NE,45,0.0,4.0,82,0.00,,,0.00,VWS V15.00,2014-08-21 11:40:00,
2014-08-21 06:45:00,74.3,68.4,30.06,SSE,158,4.9,4.9,82,0.00,,,0.00,VWS V15.00,2014-08-21 11:45:00,
2014-08-21 06:50:00,74.3,68.4,30.06,WSW,248,2.7,4.0,82,0.00,,,0.00,VWS V15.00,2014-08-21 11:50:00,
2014-08-21 06:55:00,74.3,68.4,30.06,East,90,0.0,3.1,82,0.00,,,0.00,VWS V15.00,2014-08-21 11:55:00,
2014-08-21 07:00:00,74.5,68.6,30.06,West,270,5.4,6.3,82,0.00,,,0.00,VWS V15.00,2014-08-21 12:00:00,
2014-08-21 07:05:00,74.5,68.6,30.06,SW,225,3.1,3.1,82,0.00,,,0.00,VWS V15.00,2014-08-21 12:05:00,
2014-08-21 07:10:00,74.7,68.8,30.06,WSW,248,7.2,7.2,82,0.00,,,0.00,VWS V15.00,2014-08-21 12:10:00,
2014-08-21 07:15:00,74.7,68.8,30.06,SW,225,3.6,4.9,82,0.00,,,0.00,VWS V15.00,2014-08-21 12:15:00,
2014-08-21 07:20:00,74.8,69.0,30.06,SE,135,0.0,5.4,82,0.00,,,0.00,VWS V15.00,2014-08-21 12:20:00,
2014-08-21 07:25:00,75.0,69.2,30.06,SE,135,2.2,3.6,82,0.00,,,0.00,VWS V15.00,2014-08-21 12:25:00,
2014-08-21 07:30:00,75.6,69.3,30.06,West,270,4.0,4.0,81,0.00,,,0.00,VWS V15.00,2014-08-21 12:30:00,
2014-08-21 07:35:00,75.9,68.9,30.06,SSW,202,2.7,8.3,79,0.00,,,0.00,VWS V15.00,2014-08-21 12:35:00,
2014-08-21 07:40:00,76.1,68.8,30.06,NE,45,0.0,7.2,78,0.00,,,0.00,VWS V15.00,2014-08-21 12:40:00,
2014-08-21 07:45:00,76.5,68.3,30.06,SW,225,4.0,7.6,76,0.00,,,0.00,VWS V15.00,2014-08-21 12:45:00,
2014-08-21 07:50:00,76.6,68.5,30.06,SW,225,3.1,7.6,76,0.00,,,0.00,VWS V15.00,2014-08-21 12:50:00,
2014-08-21 07:55:00,77.2,68.7,30.06,WSW,248,8.1,8.3,75,0.00,,,0.00,VWS V15.00,2014-08-21 12:55:00,
2014-08-21 08:00:00,77.2,68.3,30.06,SW,225,3.6,8.3,74,0.00,,,0.00,VWS V15.00,2014-08-21 13:00:00,
2014-08-21 08:05:00,77.5,68.6,30.06,ESE,112,3.6,4.9,74,0.00,,,0.00,VWS V15.00,2014-08-21 13:05:00,
2014-08-21 08:10:00,77.7,68.8,30.06,West,270,2.7,12.8,74,0.00,,,0.00,VWS V15.00,2014-08-21 13:10:00,
2014-08-21 08:15:00,77.9,68.6,30.06,SSE,158,5.4,7.2,73,0.00,,,0.00,VWS V15.00,2014-08-21 13:15:00,
2014-08-21 08:20:00,78.4,69.1,30.06,SW,225,8.1,8.1,73,0.00,,,0.00,VWS V15.00,2014-08-21 13:20:00,
2014-08-21 08:25:00,78.4,69.1,30.06,NW,315,3.6,5.4,73,0.00,,,0.00,VWS V15.00,2014-08-21 13:25:00,
2014-08-21 08:30:00,78.8,68.6,30.06,WSW,248,5.8,11.0,71,0.00,,,0.00,VWS V15.00,2014-08-21 13:30:00,
2014-08-21 08:35:00,79.3,68.7,30.06,SE,135,4.0,10.1,70,0.00,,,0.00,VWS V15.00,2014-08-21 13:35:00,
2014-08-21 08:40:00,79.9,69.2,30.06,SW,225,8.3,8.3,70,0.00,,,0.00,VWS V15.00,2014-08-21 13:40:00,
2014-08-21 08:45:00,80.4,69.8,30.06,West,270,8.1,10.5,70,0.00,,,0.00,VWS V15.00,2014-08-21 13:45:00,
2014-08-21 08:50:00,80.4,69.3,30.06,SSW,202,5.4,5.4,69,0.00,,,0.00,VWS V15.00,2014-08-21 13:50:00,
2014-08-21 08:55:00,81.5,70.4,30.09,West,270,6.3,7.6,69,0.00,,,0.00,VWS V15.00,2014-08-21 13:55:00,
2014-08-21 09:00:00,81.1,69.2,30.09,West,270,0.0,4.9,67,0.00,,,0.00,VWS V15.00,2014-08-21 14:00:00,
2014-08-21 09:05:00,81.7,69.2,30.09,SW,225,3.1,4.0,66,0.00,,,0.00,VWS V15.00,2014-08-21 14:05:00,
2014-08-21 09:10:00,81.5,69.1,30.09,West,270,3.6,3.6,66,0.00,,,0.00,VWS V15.00,2014-08-21 14:10:00,
2014-08-21 09:15:00,81.7,69.2,30.06,West,270,2.7,8.7,66,0.00,,,0.00,VWS V15.00,2014-08-21 14:15:00,
2014-08-21 09:20:00,82.2,69.7,30.06,West,270,3.6,7.6,66,0.00,,,0.00,VWS V15.00,2014-08-21 14:20:00,
2014-08-21 09:25:00,82.0,68.7,30.06,West,270,2.2,6.3,64,0.00,,,0.00,VWS V15.00,2014-08-21 14:25:00,
2014-08-21 09:30:00,81.7,68.3,30.09,SSW,202,7.6,10.5,64,0.00,,,0.00,VWS V15.00,2014-08-21 14:30:00,
2014-08-21 09:35:00,82.0,69.1,30.09,SW,225,6.3,6.3,65,0.00,,,0.00,VWS V15.00,2014-08-21 14:35:00,
2014-08-21 09:40:00,81.9,68.9,30.09,West,270,3.1,8.7,65,0.00,,,0.00,VWS V15.00,2014-08-21 14:40:00,
2014-08-21 09:45:00,82.2,69.3,30.09,South,180,2.2,7.2,65,0.00,,,0.00,VWS V15.00,2014-08-21 14:45:00,
2014-08-21 09:50:00,82.2,68.8,30.09,WSW,248,4.9,10.1,64,0.00,,,0.00,VWS V15.00,2014-08-21 14:50:00,
2014-08-21 09:55:00,82.2,68.8,30.09,South,180,5.8,5.8,64,0.00,,,0.00,VWS V15.00,2014-08-21 14:55:00,
2014-08-21 10:00:00,82.2,68.8,30.09,West,270,5.4,8.3,64,0.00,,,0.00,VWS V15.00,2014-08-21 15:00:00,
2014-08-21 10:05:00,82.2,68.8,30.09,West,270,2.7,2.7,64,0.00,,,0.00,VWS V15.00,2014-08-21 15:05:00,
2014-08-21 10:10:00,83.3,69.4,30.09,WNW,292,0.0,0.0,63,0.00,,,0.00,VWS V15.00,2014-08-21 15:10:00,
2014-08-21 10:15:00,83.5,68.6,30.09,NE,45,3.6,8.1,61,0.00,,,0.00,VWS V15.00,2014-08-21 15:15:00,
2014-08-21 10:20:00,83.7,68.8,30.09,WNW,292,3.6,6.3,61,0.00,,,0.00,VWS V15.00,2014-08-21 15:20:00,
2014-08-21 10:25:00,83.5,68.6,30.09,WNW,292,5.4,8.1,61,0.00,,,0.00,VWS V15.00,2014-08-21 15:25:00,
2014-08-21 10:30:00,84.6,69.6,30.09,West,270,4.0,5.8,61,0.00,,,0.00,VWS V15.00,2014-08-21 15:30:00,
2014-08-21 10:35:00,85.1,69.7,30.09,WNW,292,4.0,4.0,60,0.00,,,0.00,VWS V15.00,2014-08-21 15:35:00,
2014-08-21 10:40:00,86.0,69.5,30.09,NW,315,2.7,2.7,58,0.00,,,0.00,VWS V15.00,2014-08-21 15:40:00,
2014-08-21 10:45:00,85.6,68.7,30.09,SW,225,4.5,12.3,57,0.00,,,0.00,VWS V15.00,2014-08-21 15:45:00,
2014-08-21 10:50:00,85.6,69.2,30.09,SW,225,0.0,7.6,58,0.00,,,0.00,VWS V15.00,2014-08-21 15:50:00,
2014-08-21 10:55:00,84.9,68.0,30.09,West,270,7.6,8.3,57,0.00,,,0.00,VWS V15.00,2014-08-21 15:55:00,
2014-08-21 11:00:00,85.1,68.7,30.09,NW,315,3.1,4.9,58,0.00,,,0.00,VWS V15.00,2014-08-21 16:00:00,
2014-08-21 11:05:00,85.6,68.7,30.09,NW,315,8.7,11.9,57,0.00,,,0.00,VWS V15.00,2014-08-21 16:05:00,
2014-08-21 11:10:00,85.3,68.3,30.09,West,270,4.0,8.1,57,0.00,,,0.00,VWS V15.00,2014-08-21 16:10:00,
2014-08-21 11:15:00,86.2,69.7,30.09,West,270,0.0,5.8,58,0.00,,,0.00,VWS V15.00,2014-08-21 16:15:00,
2014-08-21 11:20:00,87.3,70.2,30.09,South,180,3.1,3.1,57,0.00,,,0.00,VWS V15.00,2014-08-21 16:20:00,
2014-08-21 11:25:00,86.5,69.5,30.09,SW,225,4.0,6.3,57,0.00,,,0.00,VWS V15.00,2014-08-21 16:25:00,
2014-08-21 11:30:00,86.4,69.3,30.09,SW,225,10.5,10.5,57,0.00,,,0.00,VWS V15.00,2014-08-21 16:30:00,
2014-08-21 11:35:00,86.2,68.7,30.09,West,270,3.1,10.1,56,0.00,,,0.00,VWS V15.00,2014-08-21 16:35:00,
2014-08-21 11:40:00,86.5,69.5,30.09,SE,135,4.0,4.0,57,0.00,,,0.00,VWS V15.00,2014-08-21 16:40:00,
2014-08-21 11:45:00,87.3,69.7,30.09,West,270,3.6,11.4,56,0.00,,,0.00,VWS V15.00,2014-08-21 16:45:00,
2014-08-21 11:50:00,86.2,68.1,30.09,SW,225,7.6,8.7,55,0.00,,,0.00,VWS V15.00,2014-08-21 16:50:00,
2014-08-21 11:55:00,86.4,68.8,30.09,South,180,0.0,3.6,56,0.00,,,0.00,VWS V15.00,2014-08-21 16:55:00,
2014-08-21 12:00:00,87.1,69.5,30.09,SW,225,4.9,11.4,56,0.00,,,0.00,VWS V15.00,2014-08-21 17:00:00,
2014-08-21 12:05:00,87.1,69.5,30.09,SW,225,8.7,10.1,56,0.00,,,0.00,VWS V15.00,2014-08-21 17:05:00,
2014-08-21 12:10:00,87.1,69.5,30.09,SW,225,2.7,3.1,56,0.00,,,0.00,VWS V15.00,2014-08-21 17:10:00,
2014-08-21 12:15:00,87.4,69.8,30.09,SW,225,3.1,5.8,56,0.00,,,0.00,VWS V15.00,2014-08-21 17:15:00,
2014-08-21 12:20:00,88.0,70.3,30.09,SW,225,6.3,8.3,56,0.00,,,0.00,VWS V15.00,2014-08-21 17:20:00,
2014-08-21 12:25:00,87.8,69.1,30.09,WSW,248,5.8,11.0,54,0.00,,,0.00,VWS V15.00,2014-08-21 17:25:00,
2014-08-21 12:30:00,87.4,69.3,30.09,SW,225,5.8,7.6,55,0.00,,,0.00,VWS V15.00,2014-08-21 17:30:00,
2014-08-21 12:35:00,87.3,69.7,30.09,West,270,2.7,6.3,56,0.00,,,0.00,VWS V15.00,2014-08-21 17:35:00,
2014-08-21 12:40:00,88.3,69.6,30.09,West,270,8.1,8.1,54,0.00,,,0.00,VWS V15.00,2014-08-21 17:40:00,
2014-08-21 12:45:00,88.5,69.8,30.09,SW,225,6.3,6.3,54,0.00,,,0.00,VWS V15.00,2014-08-21 17:45:00,
2014-08-21 12:50:00,88.0,69.3,30.09,South,180,7.2,7.2,54,0.00,,,0.00,VWS V15.00,2014-08-21 17:50:00,
2014-08-21 12:55:00,88.5,70.3,30.09,SE,135,3.1,4.0,55,0.00,,,0.00,VWS V15.00,2014-08-21 17:55:00,
2014-08-21 13:00:00,88.3,69.1,30.09,WSW,248,4.5,8.3,53,0.00,,,0.00,VWS V15.00,2014-08-21 18:00:00,
2014-08-21 13:06:00,88.2,69.4,30.09,WSW,248,4.0,4.5,54,0.00,,,0.00,VWS V15.00,2014-08-21 18:06:00,
2014-08-21 13:11:00,88.3,69.1,30.09,South,180,8.1,8.1,53,0.00,,,0.00,VWS V15.00,2014-08-21 18:11:00,
2014-08-21 13:16:00,88.3,70.1,30.09,NNW,338,4.0,4.9,55,0.00,,,0.00,VWS V15.00,2014-08-21 18:16:00,
2014-08-21 13:21:00,89.2,69.3,30.09,West,270,0.0,5.8,52,0.00,,,0.00,VWS V15.00,2014-08-21 18:21:00,
2014-08-21 13:26:00,90.0,70.0,30.09,SE,135,2.2,4.0,52,0.00,,,0.00,VWS V15.00,2014-08-21 18:26:00,
2014-08-21 13:31:00,90.1,69.6,30.09,SW,225,2.2,5.8,51,0.00,,,0.00,VWS V15.00,2014-08-21 18:31:00,
2014-08-21 13:36:00,89.8,69.3,30.09,West,270,5.4,8.3,51,0.00,,,0.00,VWS V15.00,2014-08-21 18:36:00,
2014-08-21 13:41:00,90.5,71.1,30.09,West,270,6.3,6.3,53,0.00,,,0.00,VWS V15.00,2014-08-21 18:41:00,
2014-08-21 13:46:00,89.8,68.7,30.09,SSE,158,3.6,9.6,50,0.00,,,0.00,VWS V15.00,2014-08-21 18:46:00,
2014-08-21 13:51:00,90.0,68.8,30.09,South,180,2.7,6.3,50,0.00,,,0.00,VWS V15.00,2014-08-21 18:51:00,
2014-08-21 13:56:00,89.2,68.2,30.06,SE,135,9.6,11.9,50,0.00,,,0.00,VWS V15.00,2014-08-21 18:56:00,
2014-08-21 14:01:00,89.2,68.8,30.06,NW,315,5.4,8.7,51,0.00,,,0.00,VWS V15.00,2014-08-21 19:01:00,
2014-08-21 14:06:00,90.0,68.8,30.06,West,270,5.4,7.2,50,0.00,,,0.00,VWS V15.00,2014-08-21 19:06:00,
2014-08-21 14:11:00,90.5,69.9,30.06,South,180,7.6,9.6,51,0.00,,,0.00,VWS V15.00,2014-08-21 19:11:00,
2014-08-21 14:15:00,90.5,69.3,30.06,SW,225,10.1,10.1,50,0.00,,,0.00,VWS V15.00,2014-08-21 19:15:00,
2014-08-21 14:20:00,90.5,69.3,30.06,SW,225,8.7,8.7,50,0.00,,,0.00,VWS V15.00,2014-08-21 19:20:00,
2014-08-21 14:26:00,90.5,69.3,30.06,SE,135,7.2,7.2,50,0.00,,,0.00,VWS V15.00,2014-08-21 19:26:00,
2014-08-21 14:31:00,90.9,69.7,30.06,SW,225,6.3,6.3,50,0.00,,,0.00,VWS V15.00,2014-08-21 19:31:00,
2014-08-21 14:35:00,90.0,68.2,30.06,SW,225,7.6,7.6,49,0.00,,,0.00,VWS V15.00,2014-08-21 19:35:00,
2014-08-21 14:40:00,90.0,68.8,30.06,SE,135,7.6,8.1,50,0.00,,,0.00,VWS V15.00,2014-08-21 19:40:00,
2014-08-21 14:45:00,90.9,70.8,30.06,South,180,0.0,7.2,52,0.00,,,0.00,VWS V15.00,2014-08-21 19:45:00,
2014-08-21 14:50:00,90.1,68.4,30.06,SSE,158,4.0,8.7,49,0.00,,,0.00,VWS V15.00,2014-08-21 19:50:00,
2014-08-21 14:55:00,91.4,70.2,30.06,NW,315,3.6,4.0,50,0.00,,,0.00,VWS V15.00,2014-08-21 19:55:00,
2014-08-21 15:00:00,91.0,69.2,30.06,SW,225,2.7,7.6,49,0.00,,,0.00,VWS V15.00,2014-08-21 20:00:00,
2014-08-21 15:05:00,90.0,68.2,30.06,SSW,202,8.1,8.1,49,0.00,,,0.00,VWS V15.00,2014-08-21 20:05:00,
2014-08-21 15:10:00,90.7,68.3,30.06,South,180,3.6,6.3,48,0.00,,,0.00,VWS V15.00,2014-08-21 20:10:00,
2014-08-21 15:15:00,91.4,69.0,30.06,SW,225,8.1,8.1,48,0.00,,,0.00,VWS V15.00,2014-08-21 20:15:00,
2014-08-21 15:20:00,91.4,69.0,30.06,West,270,0.0,9.6,48,0.00,,,0.00,VWS V15.00,2014-08-21 20:20:00,
2014-08-21 15:25:00,90.1,67.8,30.03,South,180,7.6,13.2,48,0.00,,,0.00,VWS V15.00,2014-08-21 20:25:00,
2014-08-21 15:30:00,91.4,68.3,30.03,SE,135,5.4,8.1,47,0.00,,,0.00,VWS V15.00,2014-08-21 20:30:00,
2014-08-21 15:35:00,91.9,69.5,30.03,SSW,202,0.0,6.7,48,0.00,,,0.00,VWS V15.00,2014-08-21 20:35:00,
2014-08-21 15:40:00,92.7,70.1,30.03,NW,315,3.6,5.4,48,0.00,,,0.00,VWS V15.00,2014-08-21 20:40:00,
2014-08-21 15:45:00,92.5,69.3,30.03,SSW,202,0.0,3.1,47,0.00,,,0.00,VWS V15.00,2014-08-21 20:45:00,
2014-08-21 15:50:00,92.1,69.6,30.03,West,270,5.4,6.3,48,0.00,,,0.00,VWS V15.00,2014-08-21 20:50:00,
2014-08-21 15:55:00,92.1,69.6,30.03,NW,315,0.0,2.7,48,0.00,,,0.00,VWS V15.00,2014-08-21 20:55:00,
2014-08-21 16:00:00,92.1,69.0,30.03,WNW,292,5.8,10.5,47,0.00,,,0.00,VWS V15.00,2014-08-21 21:00:00,
2014-08-21 16:05:00,91.8,69.3,30.03,SW,225,8.7,8.7,48,0.00,,,0.00,VWS V15.00,2014-08-21 21:05:00,
2014-08-21 16:10:00,90.9,68.5,30.03,West,270,3.1,7.6,48,0.00,,,0.00,VWS V15.00,2014-08-21 21:10:00,
2014-08-21 16:15:00,90.9,68.5,30.03,South,180,10.5,11.0,48,0.00,,,0.00,VWS V15.00,2014-08-21 21:15:00,
2014-08-21 16:20:00,90.5,68.8,30.03,SW,225,5.8,5.8,49,0.00,,,0.00,VWS V15.00,2014-08-21 21:20:00,
2014-08-21 16:25:00,90.7,68.3,30.03,SW,225,7.6,8.1,48,0.00,,,0.00,VWS V15.00,2014-08-21 21:25:00,
2014-08-21 16:30:00,91.2,68.8,30.03,East,90,4.0,8.3,48,0.00,,,0.00,VWS V15.00,2014-08-21 21:30:00,
2014-08-21 16:35:00,91.4,69.0,30.03,SW,225,0.0,0.0,48,0.00,,,0.00,VWS V15.00,2014-08-21 21:35:00,